• Join FlightAware (Why Join?)
  • Login
  • US Flag 
07:44PM EST


 

Airport Tracker/Info


-or-


 

Live Flight TrackerFlight Track Log ✈ SWA2436 ✈ 02-Nov-2013 ✈ KPHL - KMDW

Flight Track Log - Related Links

Times and Time Zones

All times are in EDT time to prevent confusion due to time zone crossing. See the SWA2436 flight status page for this flight to view local times or setup timezone preferences in your user account.

Time Position Orientation Groundspeed Altitude Reporting Facility
EDT Latitude Longitude Course Direction KTS MPH feet Rate Location/Type
09:08AM 39.8667 -75.2667 237° Southwest 154 177 500  Level Philadelphia TRACON
09:08AM 39.8500 -75.3000 237° Southwest 168 193 1,500 2,714 Climbing Philadelphia TRACON
09:09AM 39.8500 -75.3833 270° West 253 291 4,300 3,150 Climbing Philadelphia TRACON
09:10AM 39.9000 -75.4167 333° Northwest 280 322 7,800 3,250 Climbing Philadelphia TRACON
09:11AM 39.9833 -75.4500 343° North 302 348 10,800 2,604 Climbing Philadelphia TRACON
09:12AM 40.0544 -75.4894 337° Northwest 380 437 12,400 1,528 Climbing New York Center
09:13AM 40.1611 -75.5375 341° North 385 443 13,500 2,250 Climbing New York Center
09:14AM 40.2500 -75.6061 330° Northwest 381 438 16,900 1,800 Climbing New York Center
09:15AM 40.3186 -75.7092 311° West 372 428 17,100 100 Climbing New York Center
09:16AM 40.3894 -75.8094 313° West 372 428 17,100  Level New York Center
09:17AM 40.4450 -75.9225 303° West 372 428 17,100 1,150 Level New York Center
09:18AM 40.4625 -76.0439 281° West 347 399 19,400 2,400 Climbing New York Center
09:19AM 40.4839 -76.1739 282° West 352 405 21,900 2,150 Climbing New York Center
09:20AM 40.5000 -76.2761 282° West 358 412 23,700 2,100 Climbing New York Center
09:21AM 40.5253 -76.4447 281° West 382 440 26,100 2,050 Climbing New York Center
09:22AM 40.5478 -76.5833 282° West 387 445 27,800 1,700 Climbing New York Center
09:23AM 40.5678 -76.7269 280° West 393 452 29,500 1,600 Climbing New York Center
09:24AM 40.5861 -76.8572 281° West 398 458 31,000 1,700 Climbing New York Center
09:25AM 40.6078 -77.0011 281° West 398 458 32,900 1,600 Climbing New York Center
09:26AM 40.6253 -77.1422 279° West 393 452 34,200 1,350 Climbing New York Center
09:27AM 40.6489 -77.2842 282° West 393 452 35,600 1,300 Climbing New York Center
09:28AM 40.6681 -77.4228 280° West 393 452 36,800 1,161 Climbing New York Center
09:30AM 40.6983 -77.6525 280° West 398 458 38,600 1,077 Climbing Cleveland Center
09:31AM 40.7175 -77.7928 280° West 392 451 39,600 732 Climbing Cleveland Center
09:32AM 40.7364 -77.9322 280° West 388 447 40,100 293 Climbing Cleveland Center
09:33AM 40.7550 -78.0733 280° West 390 449 40,200  Climbing Cleveland Center
09:34AM 40.7739 -78.2161 280° West 394 453 40,100  Descending Cleveland Center
09:35AM 40.7969 -78.3883 280° West 396 456 40,200  Climbing Cleveland Center
09:36AM 40.8150 -78.5325 279° West 396 456 40,100 -49 Descending Cleveland Center
09:37AM 40.8339 -78.6764 280° West 394 453 40,100  Level Cleveland Center
09:38AM 40.8522 -78.8222 279° West 406 467 40,100 49 Level Cleveland Center
09:39AM 40.8700 -78.9628 280° West 397 457 40,200 49 Climbing Cleveland Center
09:40AM 40.8864 -79.1006 279° West 384 442 40,200 -49 Level Cleveland Center
09:41AM 40.9039 -79.2419 279° West 389 448 40,100  Descending Cleveland Center
09:42AM 40.9211 -79.3819 279° West 389 448 40,200 -49 Climbing Cleveland Center
09:43AM 40.9372 -79.5242 279° West 392 451 40,000 -98 Descending Cleveland Center
09:44AM 40.9583 -79.6944 279° West 393 452 40,000  Level Cleveland Center
09:45AM 40.9750 -79.8369 279° West 394 453 40,000  Level Cleveland Center
09:46AM 40.9914 -79.9794 279° West 395 455 40,000  Level Cleveland Center
09:47AM 41.0069 -80.1214 278° West 393 452 40,000  Level Cleveland Center
09:48AM 41.0236 -80.2639 279° West 396 456 40,000  Level Cleveland Center
09:49AM 41.0392 -80.4058 278° West 394 453 40,000  Level Cleveland Center
09:50AM 41.0583 -80.5758 279° West 393 452 40,000  Level Cleveland Center
09:51AM 41.0742 -80.7206 278° West 398 458 40,000  Level Cleveland Center
09:52AM 41.0894 -80.8650 278° West 400 460 40,000  Level Cleveland Center
09:53AM 41.1058 -81.0097 279° West 399 459 40,000  Level Cleveland Center
09:54AM 41.1203 -81.1492 278° West 401 461 40,000  Level Cleveland Center
09:55AM 41.1375 -81.3206 278° West 400 460 40,000  Level Cleveland Center
09:56AM 41.1508 -81.4478 278° West 404 465 40,000  Level Cleveland Center
09:57AM 41.1678 -81.6236 277° West 402 463 40,000  Level Cleveland Center
09:58AM 41.1828 -81.7708 278° West 403 464 40,000  Level Cleveland Center
09:59AM 41.1981 -81.9164 278° West 401 461 40,000  Level Cleveland Center
10:00AM 41.2122 -82.0628 277° West 400 460 40,000  Level Cleveland Center
10:01AM 41.2278 -82.2197 278° West 400 460 40,000  Level Cleveland Center
10:02AM 41.2408 -82.3675 277° West 398 458 40,000  Level Cleveland Center
10:03AM 41.2544 -82.5156 277° West 398 458 40,000  Level Cleveland Center
10:05AM 41.2686 -82.6631 277° West 400 460 40,000  Level Cleveland Center
10:06AM 41.2817 -82.8108 277° West 399 459 40,000  Level Cleveland Center
10:07AM 41.2944 -82.9589 277° West 399 459 40,000  Level Cleveland Center
10:08AM 41.3081 -83.1083 277° West 403 464 40,000  Level Cleveland Center
10:09AM 41.3206 -83.2528 277° West 402 463 40,000 -341 Level Cleveland Center
10:10AM 41.3336 -83.3994 277° West 400 460 39,300 -780 Descending Cleveland Center
10:11AM 41.3458 -83.5497 276° West 407 468 38,400 -1,317 Descending Cleveland Center
10:12AM 41.3600 -83.7336 276° West 414 476 36,600 -1,839 Descending Cleveland Center
10:13AM 41.3731 -83.8853 277° West 413 475 34,600 -1,854 Descending Cleveland Center
10:14AM 41.3853 -84.0392 276° West 416 479 32,800 -1,366 Descending Cleveland Center
10:15AM 41.3972 -84.1900 276° West 412 474 31,800 -927 Descending Cleveland Center
10:16AM 41.4086 -84.3378 276° West 423 487 30,900 -989 Descending Cleveland Center
10:16AM 41.4156 -84.4306 276° West 425 489 30,300 -587 Descending Chicago Center
10:17AM 41.4281 -84.5844 276° West 420 483 30,000 -146 Descending Chicago Center
10:18AM 41.4397 -84.7450 276° West 432 497 30,000  Level Chicago Center
10:19AM 41.4517 -84.9064 276° West 437 503 30,000  Level Chicago Center
10:20AM 41.4631 -85.0672 275° West 437 503 30,000 -919 Level Chicago Center
10:21AM 41.4733 -85.2292 275° West 436 502 28,100 -2,516 Descending Chicago Center
10:22AM 41.4853 -85.4158 275° West 419 482 24,800 -2,488 Descending Chicago Center
10:23AM 41.4953 -85.5650 275° West 400 460 23,000 -2,195 Descending Chicago Center
10:25AM 41.5047 -85.7100 275° West 392 451 20,300 -2,565 Descending Chicago Center
10:26AM 41.5136 -85.8500 275° West 383 441 17,700 -2,081 Descending Chicago Center
10:27AM 41.5214 -85.9808 275° West 358 412 16,000 -1,220 Descending Chicago Center
10:28AM 41.5242 -86.1089 272° West 348 400 15,200 -976 Descending Chicago Center
10:29AM 41.5225 -86.2375 269° West 346 398 14,000 -968 Descending Chicago Center
10:30AM 41.5231 -86.3617 270° West 338 389 13,200 -1,452 Descending Chicago Center
10:31AM 41.5219 -86.4844 269° West 333 383 11,000 -1,597 Descending Chicago Center
10:32AM 41.5214 -86.6303 270° West 328 377 9,900 -537 Descending Chicago Center
10:33AM 41.5203 -86.7492 269° West 330 380 9,900  Level Chicago Center
10:34AM 41.5203 -86.8711 270° West 330 380 9,900 -581 Level Chicago Center
10:35AM 41.5194 -86.9747 269° West 287 330 8,700 -1,403 Descending Chicago Center
10:36AM 41.5236 -87.0967 273° West 285 328 7,000 -1,306 Descending Chicago Center
10:37AM 41.5494 -87.1872 291° West 268 308 6,000 -919 Descending Chicago Center
10:38AM 41.5742 -87.2750 291° West 258 297 5,100 -976 Descending Chicago Center
10:39AM 41.5992 -87.3611 291° West 253 291 4,000 -537 Descending Chicago Center
10:40AM 41.6233 -87.4444 291° West 249 287 4,000  Level Chicago Center
10:41AM 41.6425 -87.5153 290° West 228 262 4,000 -48 Level Chicago Center
10:42AM 41.6725 -87.5939 297° West 212 244 3,900 -581 Descending Chicago Center
10:43AM 41.7086 -87.6464 313° West 201 231 2,800 -976 Descending Chicago Center
10:44AM 41.7381 -87.6869 314° West 178 205 1,900 -732 Descending Chicago Center
10:45AM 41.7608 -87.7186 314° West 147 169 1,300 -435 Descending Chicago Center
10:46AM 41.7811 -87.7483 312° West 137 158 1,000 -290 Descending Chicago Center